When you browse on this site, cookies collect data to enhance your experience and personalize the content and advertising you see.
Visit our Privacy Policy to learn more. By continuing to use the site, you agree to this use of cookies and data.
  • In Hungary
  • List of Countries
  • For 7 days
  • Water Temperature
  • Satellite Maps
  • Weather Map
  • News
  • Weather Widgets
  • user-avatar
    Login

    Hourly Weather Rio Negro

    Today, 20 January, Sunday

    Time Temperature Precipitation Wind Pressure Humidity
    00:00 +20°C° 0.3 mm 2 mps 694 mmHg 98%
    01:00 +20°C° 0 mm 2 mps 693 mmHg 98%
    02:00 +19°C° 0 mm 2 mps 693 mmHg 98%
    03:00 +19°C° 0 mm 2 mps 693 mmHg 98%
    04:00 +19°C° 0.1 mm 2 mps 693 mmHg 98%
    05:00 +19°C° 0.1 mm 1 mps 693 mmHg 98%
    06:00 +19°C° 0.1 mm 1 mps 693 mmHg 98%
    07:00 +20°C° 0.1 mm 1 mps 693 mmHg 97%
    08:00 +20°C° 0.1 mm 1 mps 694 mmHg 97%
    09:00 +20°C° 0.1 mm 1 mps 694 mmHg 96%
    10:00 +22°C° 0.1 mm 1 mps 694 mmHg 90%
    11:00 +23°C° 0.1 mm 1 mps 694 mmHg 83%
    12:00 +25°C° 0.1 mm 1 mps 695 mmHg 76%
    13:00 +25°C° 1.1 mm 1 mps 694 mmHg 81%
    14:00 +26°C° 1.1 mm 1 mps 694 mmHg 85%
    15:00 +26°C° 1.1 mm 1 mps 694 mmHg 89%
    16:00 +25°C° 1.5 mm 1 mps 693 mmHg 91%
    17:00 +24°C° 1.5 mm 1 mps 693 mmHg 93%
    18:00 +23°C° 1.5 mm 2 mps 693 mmHg 96%
    19:00 +23°C° 1.4 mm 2 mps 693 mmHg 97%
    20:00 +21°C° 1.4 mm 2 mps 694 mmHg 98%
    21:00 +21°C° 1.4 mm 2 mps 694 mmHg 99%
    22:00 +21°C° 0.2 mm 2 mps 694 mmHg 99%
    23:00 +22°C° 0.2 mm 1 mps 694 mmHg 99%

    Tomorrow, 21 January, Monday

    Time Temperature Precipitation Wind Pressure Humidity
    00:00 +21°C° 0.2 mm 1 mps 694 mmHg 99%
    01:00 +21°C° 0 mm 1 mps 694 mmHg 99%
    02:00 +21°C° 0 mm 1 mps 693 mmHg 99%
    03:00 +21°C° 0 mm 1 mps 693 mmHg 99%
    04:00 +21°C° 0 mm 1 mps 693 mmHg 99%
    05:00 +21°C° 0 mm 1 mps 693 mmHg 99%
    06:00 +21°C° 0 mm 1 mps 693 mmHg 99%
    07:00 +23°C° 0 mm 1 mps 694 mmHg 95%
    08:00 +24°C° 0 mm 1 mps 695 mmHg 91%
    09:00 +25°C° 0 mm 1 mps 695 mmHg 87%
    10:00 +27°C° 0 mm 2 mps 695 mmHg 76%
    11:00 +29°C° 0 mm 2 mps 695 mmHg 65%
    12:00 +31°C° 0 mm 2 mps 695 mmHg 55%
    13:00 +32°C° 0 mm 2 mps 695 mmHg 52%
    14:00 +34°C° 0 mm 2 mps 694 mmHg 49%
    15:00 +34°C° 0 mm 2 mps 694 mmHg 46%
    16:00 +31°C° 0.4 mm 1 mps 694 mmHg 60%
    17:00 +29°C° 0.4 mm 1 mps 693 mmHg 74%
    18:00 +26°C° 0.4 mm 1 mps 693 mmHg 88%
    19:00 +25°C° 0.3 mm 1 mps 693 mmHg 91%
    20:00 +22°C° 0.3 mm 0 mps 694 mmHg 93%
    21:00 +21°C° 0.3 mm 0 mps 694 mmHg 95%
    22:00 +21°C° 0 mm 0 mps 694 mmHg 96%
    23:00 +20°C° 0 mm 0 mps 694 mmHg 97%

    Day after tomorrow, 22 January, Tuesday

    Time Temperature Precipitation Wind Pressure Humidity
    00:00 +20°C° 0 mm 0 mps 694 mmHg 97%
    01:00 +20°C° 0 mm 0 mps 694 mmHg 97%
    02:00 +19°C° 0 mm 0 mps 694 mmHg 98%
    03:00 +19°C° 0 mm 0 mps 693 mmHg 98%
    04:00 +19°C° 0 mm 0 mps 693 mmHg 98%
    05:00 +19°C° 0 mm 0 mps 694 mmHg 98%
    06:00 +19°C° 0 mm 0 mps 694 mmHg 98%
    07:00 +21°C° 0 mm 0 mps 694 mmHg 89%
    08:00 +24°C° 0 mm 0 mps 695 mmHg 79%
    09:00 +27°C° 0 mm 0 mps 696 mmHg 70%
    10:00 +29°C° 0.1 mm 0 mps 696 mmHg 63%
    11:00 +31°C° 0.1 mm 0 mps 696 mmHg 56%
    12:00 +32°C° 0.1 mm 0 mps 696 mmHg 49%
    13:00 +31°C° 0.5 mm 0 mps 695 mmHg 56%
    14:00 +30°C° 0.5 mm 0 mps 695 mmHg 62%
    15:00 +31°C° 0.5 mm 1 mps 694 mmHg 69%
    16:00 +29°C° 1.5 mm 1 mps 694 mmHg 77%
    17:00 +28°C° 1.5 mm 1 mps 694 mmHg 84%
    18:00 +26°C° 1.5 mm 2 mps 693 mmHg 92%
    19:00 +25°C° 0.1 mm 2 mps 694 mmHg 93%
    20:00 +25°C° 0.1 mm 1 mps 694 mmHg 95%
    21:00 +24°C° 0.1 mm 1 mps 695 mmHg 97%
    22:00 +23°C° 0 mm 1 mps 695 mmHg 98%
    23:00 +23°C° 0 mm 1 mps 695 mmHg 98%

    23 January, Wednesday

    Time Temperature Precipitation Wind Pressure Humidity
    00:00 +23°C° 0 mm 1 mps 695 mmHg 99%
    01:00 +22°C° 0 mm 1 mps 694 mmHg 99%
    02:00 +20°C° 0 mm 0 mps 694 mmHg 99%
    03:00 +20°C° 0 mm 0 mps 693 mmHg 99%
    04:00 +19°C° 0 mm 0 mps 694 mmHg 99%
    05:00 +19°C° 0 mm 0 mps 694 mmHg 99%
    06:00 +19°C° 0 mm 0 mps 694 mmHg 99%
    07:00 +22°C° 0 mm 0 mps 695 mmHg 88%
    08:00 +24°C° 0 mm 0 mps 696 mmHg 78%
    09:00 +27°C° 0 mm 0 mps 696 mmHg 67%
    10:00 +29°C° 0.5 mm 0 mps 696 mmHg 60%
    11:00 +33°C° 0.5 mm 1 mps 696 mmHg 53%
    12:00 +34°C° 0.5 mm 1 mps 696 mmHg 47%
    13:00 +32°C° 0 mm 0 mps 695 mmHg 50%
    14:00 +31°C° 0 mm 0 mps 694 mmHg 53%
    15:00 +30°C° 0 mm 0 mps 694 mmHg 57%
    16:00 +28°C° 0.4 mm 0 mps 693 mmHg 68%
    17:00 +26°C° 0.4 mm 0 mps 693 mmHg 79%
    18:00 +24°C° 0.4 mm 0 mps 693 mmHg 89%
    19:00 +23°C° 0.1 mm 0 mps 693 mmHg 91%
    20:00 +22°C° 0.1 mm 0 mps 693 mmHg 92%
    21:00 +21°C° 0.1 mm 0 mps 694 mmHg 93%
    22:00 +21°C° 0.3 mm 0 mps 694 mmHg 93%
    23:00 +21°C° 0.3 mm 0 mps 694 mmHg 93%

    24 January, Thursday

    Time Temperature Precipitation Wind Pressure Humidity
    00:00 +21°C° 0.3 mm 0 mps 694 mmHg 94%
    01:00 +20°C° 0.2 mm 0 mps 693 mmHg 94%
    02:00 +20°C° 0.2 mm 0 mps 693 mmHg 95%
    03:00 +20°C° 0.2 mm 0 mps 692 mmHg 96%
    04:00 +19°C° 0.1 mm 0 mps 693 mmHg 96%
    05:00 +19°C° 0.1 mm 0 mps 693 mmHg 96%
    06:00 +19°C° 0.1 mm 0 mps 693 mmHg 97%
    07:00 +22°C° 0 mm 0 mps 694 mmHg 84%
    08:00 +25°C° 0 mm 0 mps 695 mmHg 72%
    09:00 +30°C° 0 mm 1 mps 695 mmHg 60%
    10:00 +31°C° 0 mm 1 mps 695 mmHg 53%
    11:00 +33°C° 0 mm 1 mps 695 mmHg 47%
    12:00 +35°C° 0 mm 1 mps 695 mmHg 40%
    13:00 +34°C° 0.4 mm 1 mps 694 mmHg 46%
    14:00 +34°C° 0.4 mm 2 mps 694 mmHg 51%
    15:00 +32°C° 0.4 mm 2 mps 693 mmHg 57%
    16:00 +30°C° 0.5 mm 2 mps 693 mmHg 66%
    17:00 +28°C° 0.5 mm 2 mps 693 mmHg 74%
    18:00 +27°C° 0.5 mm 3 mps 693 mmHg 83%
    19:00 +25°C° 1.1 mm 3 mps 693 mmHg 87%
    20:00 +24°C° 1.1 mm 3 mps 694 mmHg 92%
    21:00 +22°C° 1.1 mm 3 mps 694 mmHg 96%
    22:00 +21°C° 0 mm 2 mps 694 mmHg 97%
    23:00 +21°C° 0 mm 2 mps 694 mmHg 98%

    25 January, Friday

    Time Temperature Precipitation Wind Pressure Humidity
    00:00 +21°C° 0 mm 1 mps 694 mmHg 98%
    01:00 +21°C° 0 mm 1 mps 694 mmHg 99%
    02:00 +18°C° 0 mm 0 mps 693 mmHg 99%
    03:00 +18°C° 0 mm 0 mps 692 mmHg 99%
    04:00 +18°C° 0 mm 0 mps 692 mmHg 99%
    05:00 +18°C° 0 mm 0 mps 693 mmHg 99%
    06:00 +18°C° 0 mm 0 mps 693 mmHg 99%
    07:00 +20°C° 0 mm 0 mps 693 mmHg 90%
    08:00 +24°C° 0 mm 1 mps 694 mmHg 81%
    09:00 +26°C° 0 mm 1 mps 694 mmHg 72%
    10:00 +28°C° 0 mm 1 mps 695 mmHg 62%
    11:00 +30°C° 0 mm 1 mps 695 mmHg 53%
    12:00 +33°C° 0 mm 1 mps 695 mmHg 43%
    13:00 +33°C° 0 mm 1 mps 694 mmHg 43%
    14:00 +33°C° 0 mm 1 mps 694 mmHg 43%
    15:00 +31°C° 0 mm 0 mps 693 mmHg 43%
    16:00 +32°C° 0.1 mm 1 mps 693 mmHg 52%
    17:00 +30°C° 0.1 mm 1 mps 693 mmHg 60%
    18:00 +29°C° 0.1 mm 1 mps 693 mmHg 69%
    19:00 +27°C° 0.1 mm 1 mps 693 mmHg 76%
    20:00 +25°C° 0.1 mm 1 mps 694 mmHg 84%
    21:00 +23°C° 0.1 mm 1 mps 694 mmHg 91%
    22:00 +23°C° 0 mm 1 mps 694 mmHg 94%
    23:00 +22°C° 0 mm 1 mps 694 mmHg 96%
    Show more